Lid_Strength_Index
-0 1 2 4 9 8 10 8 6 7 6 4 5 6 6 5 7 11 1 1 0 1 -0 -0 -0 -0 -1 -1 -1 -1 -1 -1 -1 -1 -1 -1 -1 -1 -1 -1 -1 -1 -1 -1 -1 -1 -1 -1 -1
2 1 3 6 10 11 10 7 7 6 5 4 5 5 5 6 4 3 3 1 0 0 -0 -0 -0 -0 -1 -1 -1 -1 -1 -1 -1 -1 -1 -1 -1 -1 -1 -1 -1 -1 -1 -1 -1 -1 -1 -1 -1
2 1 7 9 10 11 10 7 6 5 4 5 5 4 4 5 3 3 1 0 0 0 -0 -0 -0 -0 -0 -1 -1 -1 -1 -1 -1 -1 -1 -1 -1 -1 -1 -1 -1 -1 -1 -1 -1 -1 -1 -1 -1
4 5 7 11 11 9 8 6 6 5 4 4 5 6 3 2 2 2 1 0 1 0 -0 -0 -0 -0 -0 -1 -1 -1 -1 -1 -1 -1 -1 -1 -1 -1 -1 -1 -1 -1 -1 -1 -1 -1 -1 -1 -1
4 6 10 11 11 8 7 6 6 6 5 5 5 6 4 2 1 1 1 1 1 1 -0 -0 -0 -0 -0 -1 -1 -1 -1 -1 -1 -1 -1 -1 -1 -1 -1 -1 -1 -1 -1 -1 -1 -1 -1 -1 -1
6 6 11 12 11 8 7 5 6 5 4 5 5 5 4 2 2 1 1 1 0 1 0 -0 -0 -0 -0 -0 -1 -1 -1 -1 -1 -1 -1 -1 -1 -1 -1 -1 -1 -1 -1 -1 -1 -1 -1 -1 -1
6 8 10 10 11 9 7 5 6 6 5 5 3 5 4 2 1 1 1 0 0 0 0 0 -0 -0 -1 -0 -0 -0 -0 -1 -1 -1 -1 -1 -1 -1 -1 -1 -1 -1 -1 -1 -1 -1 -1 -1 -1
4 6 9 9 9 10 7 7 5 5 5 3 3 5 5 3 1 1 1 1 1 1 0 0 -0 -0 -0 0 -1 -0 -1 -1 -1 -1 -1 -1 -1 -1 -1 -1 -1 -1 -1 -1 -1 -1 -1 -1 -1
3 8 9 9 9 8 5 6 5 4 4 4 3 3 2 2 1 2 2 2 1 1 1 0 0 0 -0 -0 -1 -1 -1 -1 -1 -1 -1 -1 -1 -1 -1 -1 -1 -1 -1 -1 -1 -1 -1 -1 -1
6 8 9 6 6 6 5 5 5 5 5 5 4 3 2 2 2 3 3 3 2 2 1 1 0 0 -0 -0 -0 -0 -1 -1 -1 -1 -1 -1 -1 -1 -1 -1 -1 -1 -1 -1 -1 -1 -1 -1 -1
6 8 6 6 5 5 5 5 4 5 6 5 5 5 3 2 2 3 3 2 2 2 1 1 0 0 0 0 -0 -0 -0 -0 -0 -1 -1 -1 -1 -1 -1 -0 -1 -1 -1 -0 -1 -1 -1 -0 -0
8 7 6 6 5 5 6 4 5 5 5 4 4 4 4 3 3 3 3 2 2 2 1 1 0 0 0 0 0 0 0 -0 0 -0 -1 -0 -0 -0 -0 -0 -0 -0 -0 -0 -0 -0 -1 -0 -1
8 7 6 6 6 5 5 6 5 5 4 4 4 4 4 4 3 2 2 2 2 2 1 1 0 0 0 0 0 0 0 0 -0 -0 -1 -0 0 0 -0 -0 -0 -0 -0 -0 -0 -0 -0 -0 -0
6 7 7 6 6 6 6 6 5 5 4 4 4 4 4 3 2 2 2 2 2 2 1 1 1 0 0 0 0 0 -0 -0 -0 -0 -0 -1 -0 0 0 0 0 -0 -1 -0 -0 0 0 0 -0
6 8 7 7 6 7 6 8 7 5 4 4 4 3 3 3 3 2 3 2 1 2 1 1 1 0 0 0 0 0 -0 -0 -0 -0 -0 -1 -1 -0 -0 0 0 -0 -1 -1 -0 -0 -0 0 0
7 8 10 7 6 6 7 10 7 5 5 5 4 4 3 3 3 2 2 3 1 0 2 1 1 1 1 0 0 0 -0 -0 -0 -0 -0 -0 -1 -1 -0 0 0 -0 -0 -0 0 0 1 1 1
8 11 10 9 6 6 7 10 7 5 5 5 4 4 4 3 3 2 1 1 1 1 2 1 1 1 1 0 0 0 0 0 -0 -0 -0 -0 -0 -1 -0 0 0 -0 0 0 0 0 1 1 1
11 10 9 9 7 6 7 8 6 5 5 5 5 4 4 4 3 2 2 1 1 1 1 2 1 1 1 1 0 0 0 0 -0 -0 -0 -0 -0 -0 0 0 0 -0 0 1 0 1 1 1 1
9 10 12 9 7 8 8 8 6 5 5 5 5 4 4 4 2 2 2 1 1 1 2 2 2 1 1 1 2 2 2 1 1 0 -0 -0 -0 -0 0 0 0 0 1 1 0 1 1 1 1
9 12 11 9 7 8 9 9 7 6 6 5 5 4 4 4 3 2 2 2 2 2 2 2 2 1 1 1 1 1 1 1 1 0 0 -0 -0 -0 0 0 0 0 1 1 1 1 2 1 1
9 10 10 10 9 8 9 10 9 6 6 5 5 4 4 4 4 3 3 2 2 2 1 2 2 2 1 1 1 1 1 1 1 1 1 0 0 -0 -0 0 0 0 0 1 1 1 2 3 1
10 8 8 10 10 16 9 16 10 8 7 6 5 5 5 4 3 3 3 3 2 2 1 1 2 2 1 1 1 2 2 3 2 1 1 1 0 0 0 0 0 0 0 1 1 1 1 2 3
9 7 8 9 10 11 12 14 11 8 9 7 6 5 4 4 4 4 3 2 2 2 1 1 2 2 1 1 1 2 2 2 1 1 1 1 0 0 0 0 0 1 0 0 1 1 1 1 2
6 8 8 9 10 16 12 13 12 10 8 7 6 5 4 4 3 3 2 2 2 2 2 1 2 2 2 1 1 2 2 2 2 2 2 2 1 1 0 0 0 0 0 1 1 1 1 1 1
8 11 17 17 16 16 10 12 12 8 7 6 6 5 4 4 3 3 3 3 2 2 2 2 2 3 2 2 2 2 2 2 2 2 2 2 2 1 1 1 1 1 0 0 0 1 1 1 1
10 10 17 21 18 15 10 14 11 7 6 5 5 5 4 4 3 3 3 3 2 2 2 2 2 3 2 2 2 2 1 2 2 2 1 2 2 1 1 1 1 0 0 0 0 1 1 1 1
10 12 10 16 15 17 13 10 8 7 7 6 6 5 4 4 3 3 3 2 2 2 2 2 2 2 2 2 2 2 1 2 2 1 1 1 1 1 1 1 1 0 0 0 0 1 1 1 1
9 8 14 13 18 19 14 13 14 11 9 7 6 5 5 4 4 3 3 3 2 2 2 2 2 2 2 2 2 2 2 1 1 1 1 1 1 1 1 1 1 1 1 0 1 1 1 1 1
11 12 11 12 15 19 20 17 11 11 9 9 9 7 5 5 4 4 3 3 2 2 2 2 2 2 2 2 2 2 2 2 1 1 1 1 1 1 1 1 1 1 1 1 1 1 1 1 1
10 11 11 16 15 13 15 16 8 9 8 9 8 6 6 4 4 4 3 3 3 2 2 1 2 2 2 2 2 2 2 2 2 2 2 4 1 1 1 1 1 1 1 1 1 1 1 1 2